This demonstration page uses our WeatherBlox Daily Observations layout. Learn more.

39.92423, -83.80882

Hourly Observations for June 7, 2020

Temp ( °F °C ) Dew Point ( °F °C ) Humidity (%) Winds ( mph kmh ) Pressure ( in mb ) Visibility ( mi km ) Precip ( " mm )
12:56 am 00:56 Clear 67 19.4 52 11.1 59 59 N 5 7 30 1016 10 16.0934 0 0
1:56 am 01:56 Clear 64 17.8 52 11.1 65 65 N 5 7 30.01 1016 10 16.0934 0 0
2:56 am 02:56 Clear 63 17.2 56 13.3 78 78 NE 8 13 30.03 1017 10 16.0934 0 0
3:56 am 03:56 Clear 59 15 55 12.8 87 87 NE 7 11 30.03 1017 10 16.0934 0 0
4:56 am 04:56 Clear 57 13.9 53 11.7 87 87 ENE 7 11 30.04 1017 10 16.0934 0 0
5:56 am 05:56 Clear 56 13.3 53 11.7 90 90 NE 6 9 30.06 1018 10 16.0934 0 0
6:56 am 06:56 Sunny 58 14.4 54 12.2 87 87 ENE 8 13 30.07 1018 10 16.0934 0 0
7:56 am 07:56 Sunny 63 17.2 54 12.2 73 73 NE 10 17 30.08 1019 10 16.0934 0.01 0.254
8:56 am 08:56 Sunny 67 19.4 54 12.2 63 63 E 9 15 30.08 1019 10 16.0934 0 0
9:56 am 09:56 Sunny 69 20.6 53 11.7 57 57 E 7 11 30.09 1019 10 16.0934 0 0
10:56 am 10:56 Sunny 72 22.2 53 11.7 52 52 VRB 5 7 30.09 1019 10 16.0934 1.85 46.99
11:56 am 11:56 Sunny 74 23.3 55 12.8 52 52 NNE 8 13 30.1 1019 10 16.0934 1.68 42.672
12:56 pm 12:56 Sunny 75 23.9 54 12.2 48 48 NNE 7 11 30.09 1019 10 16.0934 0.94 23.876
1:56 pm 13:56 Sunny 77 25 53 11.7 43 43 N 8 13 30.09 1019 10 16.0934 1.33 33.782
2:56 pm 14:56 Sunny 78 25.6 52 11.1 40 40 NE 8 13 30.07 1018 10 16.0934 0.44 11.176
3:56 pm 15:56 Sunny 79 26.1 53 11.7 41 41 NNE 9 15 30.06 1018 10 16.0934 0.57 14.478
4:56 pm 16:56 Sunny 79 26.1 52 11.1 39 39 NNW 6 9 30.05 1018 10 16.0934 2.06 52.324
5:56 pm 17:56 Sunny 78 25.6 52 11.1 40 40 ENE 8 13 30.04 1017 10 16.0934 4.78 121.412
6:56 pm 18:56 Sunny 77 25 52 11.1 42 42 NE 8 13 30.03 1017 10 16.0934 1.54 39.116
7:56 pm 19:56 Sunny 74 23.3 53 11.7 48 48 NE 8 13 30.04 1017 10 16.0934 0.37 9.398
8:56 pm 20:56 Sunny 69 20.6 52 11.1 55 55 NE 7 11 30.04 1017 10 16.0934 0.25 6.35
9:56 pm 21:56 Clear 66 18.9 51 10.6 59 59 NE 9 15 30.04 1017 10 16.0934 0.04 1.016
10:56 pm 22:56 Clear 64 17.8 52 11.1 65 65 ENE 10 17 30.06 1018 10 16.0934 0.18 4.572
11:56 pm 23:56 Clear 62 16.7 50 10 65 65 ENE 8 13 30.06 1018 10 16.0934 1.26 32.004

Powered by AerisWeather